Regional Weather Roundup
Issued by NWS Green Bay, WI

Home | Current Version | Previous Version | Text Only | Print | Product List | Glossary On
Versions: 1 2 3 4 5 6 7 8 9 10 11 12 13 14 15 16 17 18 19 20 21 22 23 24 25 26 27 28 29 30 31 32 33 34 35 36 37 38 39 40 41 42 43 44 45 46 47 48 49 50
000
ASUS43 KGRB 021010
RWRGRB

NORTH-CENTRAL AND NORTHEAST WISCONSIN REGIONAL WEATHER ROUNDUP
NATIONAL WEATHER SERVICE GREEN BAY WI
500 AM CDT TUE SEP 02 2014

WIZ005-009-010>012-018-019-021100-
NORTH CENTRAL WISCONSIN

CITY           SKY/WX    TMP DP  RH WIND       PRES   REMARKS
IRONWOOD       NOT AVBL
MANITOWISH WTR FOG       51  51 100 CALM      29.81F VSB 1/2
ARBOR VITAE    CLEAR     55  53  94 CALM      29.82S
EAGLE RIVER    MOCLDY    50  50 100 CALM      29.82S FOG
LAND O LAKES   FOG       44  44 100 CALM      29.82F VSB 1/2
RHINELANDER    CLEAR     52  51  97 W6        29.83S
PHILLIPS       CLOUDY    53  52  97 S3        29.82S
ANTIGO         PTCLDY    49  49 100 CALM      29.84S FOG
TOMAHAWK       CLEAR     46  45  97 CALM      29.84R
MERRILL        CLEAR     48  48 100 CALM      29.83S
$$

WIZ013-073-021100-
NORTHEAST WISCONSIN

CITY           SKY/WX    TMP DP  RH WIND       PRES   REMARKS
IRON MOUNTAIN  CLEAR     52  50  93 CALM      29.79S
MARINETTE      CLEAR     55  52  88 W5        29.81R
OCONTO         CLEAR     52  52 100 W3        29.81S
$$

WIZ017-030-035>037-045-021100-
CENTRAL WISCONSIN

CITY           SKY/WX    TMP DP  RH WIND       PRES   REMARKS
MEDFORD        CLEAR     55  54  97 SW5       29.83F
WAUSAU         CLEAR     54  53  97 CALM      29.83R
MOSINEE        CLEAR     52  52 100 CALM      29.85S
MARSHFIELD     CLEAR     55  54  96 CALM      29.85R
WISC RAPIDS    CLEAR     54  53  97 CALM      29.86S FOG
STEVENS POINT  PTCLDY    52  51  99 CALM      29.86R
WAUPACA        CLEAR     56  55  95 CALM      29.85R
SHAWANO        CLEAR     55  53  93 CALM      29.84S FOG
CLINTONVILLE   CLEAR     54  54 100 CALM      29.83S
$$

WIZ038-039-048-051-021100-
FOX VALLEY

CITY           SKY/WX    TMP DP  RH WIND       PRES   REMARKS
NWS GREEN BAY  CLEAR     54  54 100 S5        29.83S
APPLETON       CLEAR     55  55 100 SW6       29.85R
OSHKOSH        CLEAR     61  59  93 SW5       29.85R
FOND DU LAC    CLEAR     59  57  93 SW3       29.86S
$$

WIZ022-050-052-021100-
EAST CENTRAL WISCONSIN

CITY           SKY/WX    TMP DP  RH WIND       PRES   REMARKS
STURGEON BAY   CLEAR     59  55  88 W6        29.83R
MANITOWOC      CLEAR     60  59  96 W5        29.84S
SHEBOYGAN      CLEAR     56  55  97 S6        29.85S
$$

LMZ563-521-522-541>543-021100-
LAKESHORE

STATION/POSITION TIME  TEMP    WIND        PRES    VSBY  WAVE
                       AIR SEA DIR/SP/G                  HT/PER
                 (UTC) (F)     (DEG/KT/KT) (MB)    (MI)  (FT/S)
SHEBOYGAN LKSHOR 1000   63 48  240/  7/  8 1010.8R
KEWAUNEE LKSHORE 1000   60     310/  4/  6 1009.5R
NORTHPORT PIER   1000   61     260/  2/  4 1009.1R
N MID LAKE BUOY  1000   65 65  260/ 12/ 14 1008.7R         2/ 6
S GREEN BAY BUOY 0900   65     VRB 12/ 16  1010.6S
CHAMBERS ISLAND  1000   62     220/  4/  8 1009.1F
MENOMINEE LKSHOR 1000   60     240/  8/ 10 1010.1R
$$


USA.gov is the U.S. government's official web portal to all federal, state and local government web resources and services.